Regional Weather Roundup
Issued by NWS Dallas/Fort Worth, TX

Current Version | Previous Version | Text Only | Print | Product List | Glossary On
Versions: 1 2 3 4 5 6 7 8 9 10 11 12 13 14 15 16 17 18 19 20 21 22 23 24 25 26 27 28 29 30 31 32 33 34 35 36 37 38 39 40 41 42 43 44 45 46 47 48 49 50
000
ASUS44 KFWD 010115
RWRFWD
NORTH TEXAS HOURLY WEATHER ROUNDUP
NATIONAL WEATHER SERVICE FORT WORTH TX
800 PM CDT THU JUN 30 2022

NOTE: "FAIR" INDICATES FEW OR NO CLOUDS BELOW 12,000 FEET WITH NO
SIGNIFICANT WEATHER AND/OR OBSTRUCTIONS TO VISIBILITY.

TXZ118-119-010200-
DALLAS/FORT WORTH METROPLEX

CITY           SKY/WX    TMP DP  RH WIND       PRES   REMARKS
DFW AIRPORT    PTCLDY    94  59  31 E9        29.89F HX  93
DALLAS LOVE    PTCLDY    95  61  32 SE10G18   29.90S HX  95
FTW MEACHAM    CLEAR     94  60  32 E12       29.89S HX  94
DAL-EXECUTIVE  CLEAR     94  61  33 E12       29.91S HX  94
FTW-ALLIANCE   PTCLDY    95  61  32 E10       29.89S HX  95
FTW-NAS-JRB    PTCLDY    96  64  34 SE16G23   29.90S HX  98
FTW-SPINKS     CLEAR     94  59  31 SE6       29.92S HX  93
ARLINGTON      CLEAR     95  61  32 E10       29.90S HX  95
GRAND PRAIRIE  CLEAR     95  59  30 S8        29.91F HX  94
MESQUITE       PTCLDY    93  63  36 SE6       29.91S HX  94
LANCASTER      CLEAR     94  63  35 SE7       29.92S HX  95
$$

TXZ091>094-102>105-117-120-121-131>134-010200-
NORTH CENTRAL TEXAS

CITY           SKY/WX    TMP DP  RH WIND       PRES   REMARKS
SHRMAN/DENISON CLEAR     92  63  38 SE6       29.95S HX  93
GAINESVILLE    CLEAR     91  58  33 SE7       29.94S HX  90
BOWIE          CLEAR     92  58  31 SE5       29.93S HX  90
BRIDGEPORT     CLEAR     93  57  29 E5        29.92S HX  91
DECATUR        CLEAR     93  59  31 E6        29.92F HAZE    HX  93
DENTON         CLEAR     95  62  33 E8        29.91S HX  96
MCKINNEY       CLEAR     91  65  41 SE7       29.92S HX  93
BONHAM         CLEAR     90  66  45 E7        29.94S HX  93
GREENVILLE     CLEAR     92  65  40 E6        29.93S HX  94
ROCKWALL       MOCLDY    93  66  40 SE8       29.92S HX  95
TERRELL        CLEAR     94  63  35 SE6       29.92S HX  95
WAXAHACHIE     CLEAR     94  63  34 E7        29.92F HX  95
CLEBURNE       CLEAR     95  59  30 SE10      29.92S HX  94
GRANBURY       CLEAR     95  60  31 E13       29.91S HX  95
$$

TXZ083>090-098>101-113>116-127>130-139>142-154-155-010200-
WESTERN NORTH TEXAS

CITY           SKY/WX    TMP DP  RH WIND       PRES   REMARKS
WICHITA FALLS  CLEAR     94  54  25 SE13      29.89S HX  92
WF-KICKAPOO    CLEAR     96  53  23 SE14G23   29.91S HX  93
VERNON         CLEAR     97  53  22 SE12      29.90R HX  95
ABILENE        CLEAR     96  53  23 SE16G28   29.93S HX  93
ABILENE-DYESS  CLEAR     95  50  21 SE16      29.90S HX  92
GRAHAM         CLEAR     94  54  26 E6        29.89S HX  91
CISCO          CLEAR     93  52  24 SE9       29.92F HX  90
EASTLAND       CLEAR     92  55  28 S7        29.93S HX  90
RANGER         CLEAR     92  53  27 S5        29.94R
MINERAL WELLS  CLEAR     96  51  21 SE6       29.89S HX  93
STEPHENVILLE   CLEAR     94  55  26 SE8       29.95S HX  92
BROWNWOOD      CLEAR     93  54  26 SE8       29.93S HX  91
COLEMAN        CLEAR     95  50  21 SE9       29.94S HX  92
SAN SABA       CLEAR     92  62  35 SE9       29.94S HX  92
$$

TXZ143>147-156>162-174-175-010200-
CENTRAL TEXAS

CITY           SKY/WX    TMP DP  RH WIND       PRES   REMARKS
WACO           PTCLDY    93  67  42 SE17G25   29.91R HX  96
WACO-TSTC      PTCLDY    93  64  38 SE12      29.91R HX  95
WACO-MCGREGOR  CLEAR     93  68  43 SE18      29.92S HX  97
HILLSBORO      CLEAR     94  64  37 E8        29.91S HX  96
CORSICANA      CLEAR     92  67  43 SE15G22   29.94R HX  95
MEXIA          PTCLDY    90  69  49 SE12G22   29.93R HX  94
HEARNE         PTCLDY    89  69  52 SE10      29.95R HX  93
CAMERON        PTCLDY    89  67  48 SE12      29.93R HX  92
TEMPLE         CLEAR     91  68  46 SE13      29.93S HX  95
KILLEEN        CLEAR     92  61  34 E12       29.90S HX  92
KILLEEN-SKYLRK CLEAR     92  65  40 SE7       29.93S HX  94
FORT HOOD      CLEAR     92  62  35 SE9       29.93S HX  92
GATESVILLE     CLEAR     91  64  40 MISG      29.94S HX  93
HAMILTON       CLEAR     93  59  32 SE12      29.95S HX  92
LAMPASAS       CLEAR     90  63  39 SE6         N/A  HX  91
$$

TXZ095>097-106>112-122>126-135>138-148>153-164>167-010200-
EAST TEXAS

CITY           SKY/WX    TMP DP  RH WIND       PRES   REMARKS
PARIS          CLEAR     90  65  43 E7        29.95S HX  92
SULPHUR SPRNGS CLEAR     92  63  37 CALM      29.96S HX  93
MOUNT PLEASANT PTCLDY    91  69  47 E5        29.95R HX  95
GILMER         MOCLDY    86  68  54 E8        29.98R
MINEOLA        PTCLDY    90  68  48 CALM      29.94R HX  93
TYLER          MOCLDY    81  77  88 S9        29.96S
LONGVIEW       MOCLDY    88  68  51 SE12      29.96R HX  91
MARSHALL       CLOUDY    85  71  61 S3        29.99S HX  90
ATHENS         PTCLDY    90  68  48 S8        29.93R HX  93
PALESTINE      PTCLDY    86  72  62 S8        29.95R HX  92
JACKSONVILLE   PTCLDY    84  68  57 S8        30.00S
HENDERSON      CLOUDY    90  62  39 SE12      29.97S HX  90
CENTER         MOCLDY    86  68  54 S7        29.99S
NACOGDOCHES    MOCLDY    85  70  60 S6        29.99S
LUFKIN         MOCLDY    85  70  60 SE7       29.98S
$$

SUPPLEMENTAL OBSERVATIONS (NWS FORT WORTH AREA)

CITY           SKY/WX    TMP DP  RH WIND       PRES   REMARKS
CADDO GRASSLND   N/A     90  63  40 E2          N/A  HX  90
LBJ GRASSLAND    N/A     93  61  33 E5          N/A  HX  93
POSSUM KINGDOM   N/A     97  50  20 SE6         N/A  HX  94
GRANBURY         N/A     97  59  28 E9G17       N/A  HX  96
MCGREGOR         N/A     91  63  38 SE7         N/A  HX  92
TEMPLE           N/A     95  64  36 SE6         N/A  HX  97
PALESTINE        N/A     84  66  54 S6          N/A
$$

SUPPLEMENTAL OBSERVATIONS (NWS NORMAN AREA)

CITY           SKY/WX    TMP DP  RH WIND       PRES   REMARKS
GOODLETT         N/A     95  55  26 E17       29.88S HX  93
ODELL            N/A     96  56  26 SE13      29.90S HX  94
CROWELL          N/A     98  55  23 SE20      29.89S HX  95
KNOX CITY        N/A     96  55  24 SE9       29.89S HX  94
SEYMOUR          N/A     94  57  28 SE13      29.89S HX  93
MILLERS CREEK    N/A     97  57  26 SE9         N/A  HX  95
$$

SUPPLEMENTAL OBSERVATIONS (NWS SAN ANGELO AREA)

CITY           SKY/WX    TMP DP  RH WIND       PRES   REMARKS
WEINERT          N/A     97  55  24 SE13      29.90S HX  95
HASKELL          N/A     95  56  27 SE8       29.90S HX  93
THROCKMORTON     N/A     95  55  25 SE7       29.91S HX  93
STAMFORD         N/A     96  57  27 SE15      29.91S HX  94
CLYDE            N/A     92  56  28 SE7       29.97S HX  91
HAMBY            N/A     95  52  23 SE9G18      N/A  HX  92
IVIE RESERVOIR   N/A     95  52  23 E12         N/A  HX  92
COLORADO BEND    N/A    N/A N/A N/A SE8         N/A
$$

SUPPLEMENTAL OBSERVATIONS (NWS SHREVEPORT AREA)

CITY           SKY/WX    TMP DP  RH WIND       PRES   REMARKS
TEXARKANA        N/A     84  70  61 CALM        N/A
LUFKIN           N/A     84  68  58 MISG        N/A
N SABINE NF      N/A     84  68  58 MISG        N/A
$$

SUPPLEMENTAL OBSERVATIONS ARE A COLLECTION OF AUTOMATED INSTRUMENTS
THAT ARE MAINTAINED BY A VARIETY OF FEDERAL AND STATE AGENCIES.
CERTAIN ELEMENTS...SUCH AS HUMIDITY VALUES AND SUSTAINED WIND
SPEEDS...MAY BE APPROXIMATED.




USA.gov is the U.S. government's official web portal to all federal, state and local government web resources and services.